When you browse on this site, cookies collect data to enhance your experience and personalize the content and advertising you see.
Visit our Privacy Policy to learn more. By continuing to use the site, you agree to this use of cookies and data.
  • In Hungary
  • List of Countries
  • For 7 days
  • Water Temperature
  • Weather Map
  • News
  • Weather Widgets
  • user-avatar
    Login

    Hourly Weather Birmingham

    Today, 9 April, Thursday

    Time Temperature Precipitation Wind Pressure Humidity
    00:00 +21°C° 0 mm 3 mps 736 mmHg 96%
    01:00 +21°C° 0.5 mm 3 mps 735 mmHg 96%
    02:00 +21°C° 0.5 mm 3 mps 735 mmHg 95%
    03:00 +21°C° 0.5 mm 3 mps 735 mmHg 95%
    04:00 +20°C° 0.3 mm 3 mps 736 mmHg 94%
    05:00 +20°C° 0.3 mm 3 mps 736 mmHg 94%
    06:00 +20°C° 0.3 mm 4 mps 737 mmHg 94%
    07:00 +20°C° 0 mm 4 mps 738 mmHg 84%
    08:00 +20°C° 0 mm 4 mps 738 mmHg 74%
    09:00 +20°C° 0 mm 4 mps 739 mmHg 64%
    10:00 +21°C° 0 mm 4 mps 739 mmHg 56%
    11:00 +22°C° 0 mm 4 mps 739 mmHg 48%
    12:00 +23°C° 0 mm 4 mps 739 mmHg 40%
    13:00 +23°C° 0 mm 4 mps 739 mmHg 39%
    14:00 +24°C° 0 mm 3 mps 738 mmHg 38%
    15:00 +24°C° 0 mm 3 mps 738 mmHg 36%
    16:00 +21°C° 0 mm 3 mps 738 mmHg 43%
    17:00 +20°C° 0 mm 2 mps 738 mmHg 50%
    18:00 +18°C° 0 mm 2 mps 738 mmHg 57%
    19:00 +17°C° 0 mm 3 mps 739 mmHg 55%
    20:00 +16°C° 0 mm 3 mps 739 mmHg 53%
    21:00 +14°C° 0 mm 3 mps 740 mmHg 51%
    22:00 +13°C° 0 mm 3 mps 740 mmHg 52%
    23:00 +13°C° 0 mm 3 mps 740 mmHg 53%

    Tomorrow, 10 April, Friday

    Time Temperature Precipitation Wind Pressure Humidity
    00:00 +14°C° 0 mm 2 mps 740 mmHg 54%
    01:00 +12°C° 0 mm 3 mps 740 mmHg 55%
    02:00 +12°C° 0 mm 3 mps 740 mmHg 56%
    03:00 +11°C° 0 mm 4 mps 741 mmHg 57%
    04:00 +10°C° 0 mm 4 mps 741 mmHg 56%
    05:00 +7°C° 0 mm 4 mps 742 mmHg 56%
    06:00 +6°C° 0 mm 4 mps 743 mmHg 55%
    07:00 +7°C° 0 mm 4 mps 743 mmHg 49%
    08:00 +8°C° 0 mm 4 mps 744 mmHg 42%
    09:00 +10°C° 0 mm 4 mps 744 mmHg 36%
    10:00 +11°C° 0 mm 4 mps 744 mmHg 34%
    11:00 +12°C° 0 mm 4 mps 744 mmHg 33%
    12:00 +13°C° 0 mm 4 mps 743 mmHg 31%
    13:00 +14°C° 0 mm 4 mps 743 mmHg 32%
    14:00 +14°C° 0 mm 3 mps 743 mmHg 33%
    15:00 +14°C° 0 mm 3 mps 743 mmHg 34%
    16:00 +13°C° 0 mm 3 mps 743 mmHg 41%
    17:00 +13°C° 0 mm 2 mps 743 mmHg 48%
    18:00 +10°C° 0 mm 2 mps 743 mmHg 55%
    19:00 +9°C° 0 mm 2 mps 743 mmHg 56%
    20:00 +8°C° 0 mm 2 mps 744 mmHg 58%
    21:00 +9°C° 0 mm 1 mps 744 mmHg 59%
    22:00 +8°C° 0 mm 1 mps 744 mmHg 60%
    23:00 +8°C° 0 mm 1 mps 744 mmHg 61%

    Day after tomorrow, 11 April, Saturday

    Time Temperature Precipitation Wind Pressure Humidity
    00:00 +7°C° 0 mm 1 mps 744 mmHg 62%
    01:00 +7°C° 0 mm 1 mps 743 mmHg 63%
    02:00 +7°C° 0 mm 1 mps 743 mmHg 65%
    03:00 +6°C° 0 mm 1 mps 743 mmHg 66%
    04:00 +6°C° 0 mm 1 mps 743 mmHg 66%
    05:00 +6°C° 0 mm 1 mps 744 mmHg 66%
    06:00 +6°C° 0 mm 1 mps 744 mmHg 67%
    07:00 +8°C° 0 mm 2 mps 744 mmHg 58%
    08:00 +12°C° 0 mm 2 mps 744 mmHg 49%
    09:00 +14°C° 0 mm 2 mps 744 mmHg 40%
    10:00 +16°C° 0 mm 2 mps 744 mmHg 36%
    11:00 +18°C° 0 mm 2 mps 743 mmHg 32%
    12:00 +20°C° 0 mm 2 mps 743 mmHg 29%
    13:00 +20°C° 0 mm 3 mps 742 mmHg 31%
    14:00 +21°C° 0 mm 3 mps 742 mmHg 33%
    15:00 +21°C° 0 mm 3 mps 741 mmHg 35%
    16:00 +19°C° 0 mm 3 mps 741 mmHg 42%
    17:00 +18°C° 0 mm 2 mps 740 mmHg 49%
    18:00 +16°C° 0 mm 2 mps 740 mmHg 56%
    19:00 +16°C° 0 mm 2 mps 740 mmHg 56%
    20:00 +15°C° 0 mm 2 mps 741 mmHg 57%
    21:00 +14°C° 0 mm 2 mps 741 mmHg 58%
    22:00 +13°C° 0.1 mm 3 mps 741 mmHg 62%
    23:00 +13°C° 0.1 mm 3 mps 740 mmHg 66%

    12 April, Sunday

    Time Temperature Precipitation Wind Pressure Humidity
    00:00 +13°C° 0.1 mm 4 mps 740 mmHg 70%
    01:00 +13°C° 1.3 mm 4 mps 740 mmHg 79%
    02:00 +13°C° 1.3 mm 4 mps 739 mmHg 87%
    03:00 +13°C° 1.3 mm 4 mps 738 mmHg 95%
    04:00 +13°C° 3.8 mm 4 mps 738 mmHg 95%
    05:00 +13°C° 3.8 mm 4 mps 738 mmHg 95%
    06:00 +13°C° 3.8 mm 4 mps 737 mmHg 95%
    07:00 +14°C° 2.2 mm 5 mps 737 mmHg 95%
    08:00 +15°C° 2.2 mm 5 mps 737 mmHg 95%
    09:00 +16°C° 2.2 mm 6 mps 736 mmHg 95%
    10:00 +16°C° 4.6 mm 7 mps 735 mmHg 94%
    11:00 +17°C° 4.6 mm 7 mps 733 mmHg 94%
    12:00 +18°C° 4.6 mm 7 mps 732 mmHg 94%
    13:00 +20°C° 8.1 mm 8 mps 731 mmHg 93%
    14:00 +21°C° 8.1 mm 8 mps 730 mmHg 93%
    15:00 +21°C° 8.1 mm 9 mps 729 mmHg 93%
    16:00 +21°C° 6.8 mm 7 mps 729 mmHg 91%
    17:00 +21°C° 6.8 mm 6 mps 730 mmHg 90%
    18:00 +21°C° 6.8 mm 4 mps 730 mmHg 89%
    19:00 +21°C° 0 mm 4 mps 732 mmHg 90%
    20:00 +20°C° 0 mm 3 mps 733 mmHg 91%
    21:00 +19°C° 0 mm 3 mps 734 mmHg 92%
    22:00 +18°C° 0 mm 3 mps 734 mmHg 93%
    23:00 +18°C° 0 mm 2 mps 735 mmHg 94%

    13 April, Monday

    Time Temperature Precipitation Wind Pressure Humidity
    00:00 +18°C° 0 mm 2 mps 735 mmHg 95%
    01:00 +17°C° 0 mm 2 mps 735 mmHg 94%
    02:00 +17°C° 0 mm 2 mps 735 mmHg 94%
    03:00 +17°C° 0 mm 2 mps 735 mmHg 94%
    04:00 +16°C° 0 mm 3 mps 736 mmHg 94%
    05:00 +16°C° 0 mm 3 mps 737 mmHg 94%
    06:00 +14°C° 0 mm 3 mps 738 mmHg 94%
    07:00 +14°C° 0 mm 3 mps 739 mmHg 91%
    08:00 +13°C° 0 mm 4 mps 740 mmHg 88%
    09:00 +13°C° 0 mm 4 mps 741 mmHg 84%
    10:00 +14°C° 0 mm 4 mps 742 mmHg 75%
    11:00 +15°C° 0 mm 4 mps 743 mmHg 65%
    12:00 +17°C° 0 mm 4 mps 743 mmHg 56%
    13:00 +17°C° 0 mm 4 mps 743 mmHg 53%
    14:00 +17°C° 0 mm 4 mps 743 mmHg 51%
    15:00 +17°C° 0 mm 4 mps 743 mmHg 48%
    16:00 +15°C° 0 mm 4 mps 743 mmHg 53%
    17:00 +13°C° 0 mm 3 mps 744 mmHg 58%
    18:00 +12°C° 0 mm 3 mps 744 mmHg 63%
    19:00 +11°C° 0 mm 3 mps 745 mmHg 65%
    20:00 +10°C° 0 mm 3 mps 746 mmHg 67%
    21:00 +8°C° 0 mm 3 mps 746 mmHg 68%
    22:00 +8°C° 0 mm 3 mps 746 mmHg 68%
    23:00 +7°C° 0 mm 3 mps 747 mmHg 67%

    14 April, Tuesday

    Time Temperature Precipitation Wind Pressure Humidity
    00:00 +7°C° 0 mm 3 mps 747 mmHg 67%
    01:00 +5°C° 0 mm 3 mps 747 mmHg 65%
    02:00 +5°C° 0 mm 3 mps 747 mmHg 64%
    03:00 +4°C° 0 mm 3 mps 746 mmHg 63%
    04:00 +4°C° 0 mm 3 mps 747 mmHg 60%
    05:00 +4°C° 0 mm 4 mps 747 mmHg 57%
    06:00 +4°C° 0 mm 4 mps 747 mmHg 54%
    07:00 +5°C° 0 mm 4 mps 747 mmHg 49%
    08:00 +7°C° 0 mm 4 mps 747 mmHg 44%
    09:00 +9°C° 0 mm 5 mps 748 mmHg 39%
    10:00 +10°C° 0 mm 5 mps 747 mmHg 38%
    11:00 +13°C° 0 mm 4 mps 747 mmHg 36%
    12:00 +14°C° 0 mm 4 mps 747 mmHg 34%
    13:00 +15°C° 0 mm 4 mps 746 mmHg 35%
    14:00 +15°C° 0 mm 5 mps 746 mmHg 36%
    15:00 +15°C° 0 mm 5 mps 745 mmHg 37%
    16:00 +14°C° 0 mm 5 mps 746 mmHg 43%
    17:00 +12°C° 0 mm 5 mps 746 mmHg 49%
    18:00 +9°C° 0 mm 5 mps 746 mmHg 55%
    19:00 +8°C° 0 mm 5 mps 746 mmHg 61%
    20:00 +6°C° 0 mm 4 mps 747 mmHg 66%
    21:00 +5°C° 0 mm 4 mps 747 mmHg 71%
    22:00 +5°C° 0 mm 3 mps 747 mmHg 72%
    23:00 +5°C° 0 mm 3 mps 747 mmHg 73%
    Show more